www.pogodaiklimat.ru

Погода и климат >> Архив погоды >> Россия >> Красноярский край >> Тасеево


ПОГОДА в Тасеево

  • Прогноз погоды в Тасеево
  • Монитор погоды в Тасеево

АРХИВ ПОГОДЫ в Тасеево

Время (UTC), дата Ветер
(напр.,м/с)
 
Видим.   Явления Облачность Т
(С)
Тd
(С)
f
(%)
Тe
(С)
Тes
(С)
Комфортность P
(гПа)
Po
(гПа)
Тmin
(С)
Tmax
(С)
R
(мм)
R24
(мм)
S
(см)
15 12.08 З 2 20 км 10/3 600 м
[Sc Ci sp]
+13.8 +8.5 70 +13 +13 1011.2 991.3
18 12.08 СЗ 2 20 км 6/0
[Ci sp]
+12.2 +8.1 76 +11 +11 1010.3 990.3
21 12.08 З 3 20 км 10/0
[Ac cast Ci fib]
+11.0 +7.7 80 +9 +9 1009.5 989.5
00 13.08 СЗ 4 20 км 10/1 1000 м
[Sc Ac As Ci fib]
+11.3 +7.9 80 +9 +9 1009.1 989.1 +10.6
03 13.08 СЗ 2 20 км в посл. час дождь 10/3 1000 м
[Sc Ac As]
+11.1 +9.5 90 +10 +11 1008.6 988.6
06 13.08 СЗ 2 10 км дождь 10/0
[As op]
+11.5 +10.3 92 +10 +13 1009.0 989.1
09 13.08 СЗ 3 20 км в посл. час морось {дождь} 10/3 300 м
[Frnb Ac As]
+11.6 +11.0 96 +10 +11 1009.8 989.8
12 13.08 СЗ 2 20 км {дождь, морось} 10/0 2000 м
[Ac und]
+12.3 +11.4 94 +11 +11 1010.7 990.7 +12.3 2
15 13.08 З 1 20 км 10/6 1000 м
[Sc Ac und]
+11.9 +11.2 95 +12 +12 1011.3 991.3
18 13.08 С 1 20 км 10/0
[Ac und]
+11.5 +11.0 97 +11 +11 1011.2 991.2
21 13.08 штиль 0 20 км 9/0
[Ac und]
+10.9 +10.4 97 +10 +10 1011.8 991.7
00 14.08 СВ 2 20 км 9/0 2000 м
[Ac trans]
+12.1 +11.5 96 +11 +12 1013.1 993.1 +10.6
03 14.08 В 3 20 км 10/10 300 м
[Frnb]
+14.7 +9.5 71 +14 +14 1014.3 994.4
06 14.08 СВ 2 20 км 9/9 600 м
[Cb cap]
+17.3 +9.3 59 +18 +19 1015.3 995.6
09 14.08 Ю 2 20 км 6/4 600 м
[Cu med, cong Ci fib]
+19.3 +9.3 52 +21 +24 комфорт 1015.4 995.8
12 14.08 Ю 2 20 км 6/3 1000 м
[Cu hum Ci fib]
+18.8 +9.6 55 +20 +20 1016.0 996.4 +19.9
15 14.08 В 1 20 км 4/0
[Ci fib]
+10.9 +10.3 96 +10 +10 1017.4 997.2
18 14.08 В 1 20 км ясно +7.7 +7.4 98 +7 +7 1017.8 997.4
21 14.08 штиль 0 10 км дымка 3/0
[Ci fib]
+5.4 +5.1 98 +4 +4 1017.8 997.2
00 15.08 З 1 20 км 10/0
[Ci fib]
+8.3 +7.9 97 +7 +8 1017.3 997.0 +4.6
03 15.08 В 1 20 км 10/0
[Ac cast Ci sp]
+18.3 +11.4 64 +20 +27 1015.8 996.2
06 15.08 ЮВ 1 20 км 10/4 600 м
[Cu hum Ci sp]
+21.1 +11.6 55 +23 +29 комфорт 1014.8 995.3
09 15.08 В 4 20 км 10/6 600 м
[Cu med, cong Ci fib]
+23.0 +10.3 45 +25 +26 комфорт 1013.3 994.0
12 15.08 В 2 20 км 8/3 600 м
[Sc diur, vesp Ac trans Ci fib]
+21.8 +11.0 50 +24 +24 комфорт 1013.2 993.8 +23.8
15 15.08 штиль 0 20 км 4/0
[Ac trans]
+15.5 +12.0 80 +15 +15 1014.0 994.2
18 15.08 СВ 1 20 км 6/0
[Ci fib]
+11.7 +11.1 96 +11 +11 1014.4 994.4
21 15.08 СВ 1 20 км 4/0
[Ac lent Ci fib]
+10.9 +10.4 97 +10 +10 1014.2 994.1
00 16.08 С 1 20 км 6/0
[Ci fib]
+14.3 +12.4 88 +15 +16 1013.5 993.6 +9.7
03 16.08 В 3 20 км 6/0
[Ci fib]
+20.9 +12.2 57 +24 +29 комфорт 1012.5 993.1
06 16.08 В 4 50 км 8/3 1000 м
[Cu hum Ci fib]
+24.3 +10.8 43 +26 +30 жарко 1011.1 991.9
09 16.08 В 4
{10}
50 км 8/4 600 м
[Cu med, cong Ci fib]
+25.0 +8.8 36 +26 +28 жарко 1009.9 990.8
12 16.08 В 3 4000 м дым 10/0
[Ci sp]
+22.8 +11.5 49 +25 +25 комфорт 1010.3 991.1 +25.4
15 16.08 В 2 4000 м дым 10/0
[Ci sp]
+18.2 +12.3 68 +19 +19 1011.1 991.5
18 16.08 СВ 2 4000 м дым 10/0
[Ci sp]
+15.7 +12.9 83 +16 +16 1011.6 991.9
21 16.08 СВ 1 4000 м дым 10/0
[Ci sp]
+13.5 +12.6 94 +14 +14 1012.1 992.2
00 17.08 СЗ 1 4000 м дым 10/0
[Ci sp]
+13.5 +12.8 96 +14 +15 1012.9 993.0 +12.2
03 17.08 В 3 4000 м дым 10/0
[Ci fib]
+20.3 +12.8 62 +23 +28 комфорт 1012.8 993.4
06 17.08 В 3 4000 м дым 1/1 1000 м
[Cu hum]
+23.8 +11.5 46 +25 +34 комфорт 1012.3 993.1
09 17.08 СВ 3 4000 м дым 10/1 1000 м
[Cu hum Ci fib]
+24.4 +9.2 38 +25 +29 комфорт 1012.2 993.0
12 17.08 СВ 3 4000 м дым 9/3 600 м
[Cu hum Ci sp]
+21.8 +10.9 50 +24 +24 комфорт 1012.9 993.5 +24.5
15 17.08 СВ 1 10 км дым 10/0
[Ac trans Ci fib]
+17.8 +12.1 69 +19 +19 1013.8 994.2
18 17.08 С 1 20 км 10/10 600 м
[Cb cap]
+15.0 +13.9 93 +15 +15 1014.2 994.4
21 17.08 штиль 0 20 км {гроза, ливн. осадки} 10/10 600 м
[Cb cap]
+14.0 +13.5 97 +14 +14 1014.8 994.9
00 18.08 СВ 1 10 км дымка {гроза, ливн. осадки} 10/10 600 м
[Cb cap]
+13.8 +13.3 97 +14 +14 1014.8 994.9 +12.6 2
03 18.08 З 1 10 км дым 8/8 600 м
[Sc]
+16.2 +14.1 87 +17 +19 1014.5 994.8
06 18.08 В 2 10 км дым 8/3 600 м
[Cu med, cong Ac cast]
+19.0 +11.8 63 +20 +24 1014.1 994.5
09 18.08 В 2 10 км дым 4/3 600 м
[Cu med, cong Ci fib]
+19.4 +10.4 56 +21 +25 комфорт 1013.1 993.6
12 18.08 С 1 4000 м дым 8/8 1000 м
[Sc]
+19.2 +12.4 65 +21 +22 комфорт 1012.9 993.4 +20.4
15 18.08 штиль 0 4000 м дым 9/9 1000 м
[Sc]
+14.4 +13.5 94 +14 +14 1014.1 994.2
18 18.08 штиль 0 4000 м дымка 4/0
[Ac cast]
+11.1 +10.6 97 +10 +10 1014.3 994.2
21 18.08 штиль 0 500 м туман ?/? +9.9 +9.5 97 +9 +9 1014.6 994.4
00 19.08 штиль 0 200 м туман ?/? +9.7 +9.3 97 +9 +9 1015.7 995.4 +9.1
03 19.08 СВ 1 4000 м дым {туман} ясно +17.4 +13.3 77 +18 +27 1015.4 995.7
06 19.08 СЗ 2 4000 м дым {туман} 3/3 1000 м
[Cu med, cong]
+23.2 +10.9 46 +25 +33 комфорт 1014.5 995.2
09 19.08 С 3 10 км 6/3 600 м
[Cb cap Ci fib]
+23.4 +8.9 40 +25 +28 комфорт 1014.4 995.1

 

Местоположение метеостанции Тасеево (Красноярский край, Россия): широта 57.20 долгота 94.55 высота над уровнем моря 165 м.

В архиве по умолчанию представлена погода в Тасеево за последнюю неделю. Архивные данные за месяц целиком и за предыдущие месяцы, начиная с января 2011 года, Вы можете получить, выбрав интересующий диапазон дат из раскрывающегося списка и нажав кнопку "Ввод!".


*Определитесь, кто Вы:
робот инопланетянин человек

Внимание! Время в таблицах - всемирное. Для получения местного времени необходимо прибавить поправку, которая равна 7 ч.

Смотрите также архив погоды в соседних городах и на ближайших метеорологических станциях:

Погода в Дзержинском (Красноярский край, Россия) (56 км)
Погода в Большой Мурте (Красноярский край, Россия) (92 км)
Погода в Казачинском (Красноярский край, Россия) (93 км)
Погода в Абане (Красноярский край, Россия) (106 км)
Погода в Мотыгино (Красноярский край, Россия) (109 км)
Погода в Сухобузимском (Красноярский край, Россия) (110 км)
Погода в Солянке (Красноярский край, Россия) (123 км)
Погода в Железногорске (Красноярский край, Россия) (123 км)
Погода в Канске (Красноярский край, Россия) (129 км)
Погода в Погорельском Бору (Красноярский край, Россия) (134 км)

Пояснения к столбцам:

Ветер - указаны скорость ветра в м/с - средняя за 10 мин, порывы в срок и между сроками (в фигурных скобках) и направление, откуда дует ветер: С - северный, СВ - северо-восточный, В - восточный, ЮВ - юго-восточный, Ю - южный, ЮЗ - юго-западный, З - западный, СЗ - северо-западный.
Видимость - горизонтальная дальность видимости в метрах или километрах. При видимости от 1 до 10 км при отсутствии осадков обычно наблюдается дымка, при ухудшении видимости до 1 км и менее - туман. В сухую погоду видимость может ухудшаться дымом, пылью или мглою.
Явления - указаны атмосферные явления, наблюдавшиеся в срок или в последний час перед сроком; фигурными скобками обозначены явления, наблюдавшиеся между сроками (за 1-3 часа до срока); квадратными скобками обозначены град или гололедные отложения с указанием их диаметра в мм.
Облачность - указаны через наклонную черту общая и нижняя облачность в баллах и высота нижней границы облаков в метрах; квадратными скобками обозначены формы облаков: Ci - перистые, Cs - перисто-слоистые, Cc - перисто-кучевые, Ac - высококучевые, As - высокослоистые, Sc - слоисто-кучевые, Ns - слоисто-дождевые, Cu - кучевые, Cb - кучево-дождевые. Подробнее классификацию облаков см. в Атласе облаков (PDF).
T - Температура воздуха - температура, измеренная на высоте 2 м над землей.
Td - Температура точки росы - температура, при понижении до которой содержащийся в воздухе водяной пар достигнет насыщения.
f - Относительная влажность воздуха - влажноcть воздуха, измеренная на высоте 2 м над землей.
Te - Эффективная температура - температура, которую ощущает одетый по сезону человек в тени. Характеристика душности погоды. При расчете учитывается влияние влажности воздуха и скорости ветра на теплоощущения человека.
Tes - Эффективная температура на солнце - температура, которую ощущает человек, с поправкой на солнечный нагрев. Характеристика знойности погоды. Зависит от высоты солнца над горизонтом, облачности и скорости ветра. Ночью, в пасмурную погоду, а также при ветре 12 м/с и более поправка равна нулю.
P - Атмосферное давление - приведенное к уровню моря атмосферное давление.
Po - Атмосферное давление - измеренное на уровне метеостанции атмосферное давление.
Tmin - Минимальная температура - минимум температуры воздуха на высоте 2 м над землей.
Tmax - Максимальная температура - максимум температуры воздуха на высоте 2 м над землей.
R - Количество осадков - Количество выпавших осадков за период времени, мм. При наведении курсора мыши на число - период времени, за который выпало указанное количество осадков.
R24 - Количество осадков - Количество выпавших осадков за 24 часа, мм.
S - Снежный покров - Высота снежного покрова, см. При наведении курсора мыши на число - состояние снежного покрова и степень покрытия местности в баллах.